Terminal Aerodrome Forecast
Issued by NWS

Home | Current Version | Previous Version | Text Only | Print | Product List | Glossary On
Versions: 1 2 3 4 5 6 7 8 9 10 11 12 13 14 15 16 17 18
000
FTUS42 TJSJ 220100 AAA
TAFJBQ
TAF AMD
TJBQ 220149Z 2202/2224 07013G20KT P6SM VCSH SCT018 BKN040
      TEMPO 2202/2204 4SM TSRA BKN015CB
     FM220500 11012KT P6SM VCSH SCT020 BKN040
     FM221630 08015G25KT P6SM VCTS SCT025CB SCT050=

USA.gov is the U.S. government's official web portal to all federal, state and local government web resources and services.